Hourly Weather Roundup
Issued by NWS Central Illinois

Home | Current Version | Previous Version | Text Only | Print | Product List | Glossary Off
Versions: 1 2 3 4 5 6 7 8 9 10 11 12 13 14 15 16 17 18 19 20 21 22 23 24 25 26 27 28 29 30 31 32 33 34 35 36 37 38 39 40 41 42 43 44 45 46 47 48 49 50

000
NZUS43 KILX 041610
HWRILX

AREA WEATHER ROUNDUP
NATIONAL WEATHER SERVICE, LINCOLN IL
1100 AM CDT SAT JUL 04 2015


CITY           SKY/WX    TMP DP  RH WIND       PRES   REMARKS
BLOOMINGTON    MOSUNNY   76  60  57 VRB3      30.05R
CHAMPAIGN      SUNNY     76  61  59 VRB3      30.04S
DANVILLE       SUNNY     74  60  63 CALM      30.01S
DECATUR        SUNNY     76  57  51 CALM      30.04S
EFFINGHAM      SUNNY     74  58  55 CALM      30.05S
FLORA          SUNNY     75  64  68 NE3       30.04R
GALESBURG      SUNNY     75  60  58 CALM      30.04S
JACKSONVILLE   MOSUNNY   76  67  73 CALM      30.04S
LACON          SUNNY     74  58  56 SW3       30.03R
LAWRENCEVILLE  MOSUNNY   77  67  71 NW5       30.03R
LITCHFIELD     SUNNY     76  60  58 CALM      30.04S
$$


CITY           SKY/WX    TMP DP  RH WIND       PRES   REMARKS
LINCOLN        SUNNY     77  61  58 S3        30.04S
MACOMB         SUNNY     75  62  63 CALM      30.06S
MATTOON        SUNNY     75  60  59 NE3       30.03S
MT CARMEL AP   SUNNY     77  64  65 CALM      30.03R
OLNEY-NOBLE AP MOSUNNY   75  64  69 N3        30.04R
PARIS          SUNNY     76  62  61 E3        30.04S
PEORIA         SUNNY     77  59  53 CALM      30.04R
PONTIAC        SUNNY     76  62  63 SW3       30.04R
RANTOUL        SUNNY     76  61  59 CALM      30.04R
ROBINSON       PTSUNNY   75  64  67 CALM      30.04R
SPRINGFIELD    PTSUNNY   77  65  66 S5        30.04S
TAYLORVILLE    SUNNY     73  61  64 CALM      30.04S
$$

...REGIONAL REPORTS...


CITY           SKY/WX    TMP DP  RH WIND       PRES   REMARKS
CHICAGO O`HARE SUNNY     76  55  48 W3        30.00S
KANKAKEE       SUNNY     76  61  59 CALM      30.03R
MOLINE         SUNNY     78  56  46 VRB3      30.02S
MOUNT STERLING NOT AVBL
MOUNT VERNON   MOSUNNY   79  64  61 E5        30.04R HX  81
PITTSFIELD     MOSUNNY   76  67  73 S3        30.05S
QUINCY         SUNNY     76  62  62 VRB3      30.03F
ROCKFORD       SUNNY     77  60  55 CALM      30.02R
$$


CITY           SKY/WX    TMP DP  RH WIND       PRES   REMARKS
BURLINGTON     SUNNY     75  62  64 S6        30.03S
CEDAR RAPIDS   SUNNY     74  63  68 W6        30.01S
DES MOINES     MOSUNNY   77  60  55 S5        30.01F
KIRKSVILLE     SUNNY     75  62  64 SE7       30.05S
OTTUMWA        SUNNY     74  60  61 SW5       30.02S
ST LOUIS       MOSUNNY   79  62  56 CALM      30.03F HX  80
$$


CITY           SKY/WX    TMP DP  RH WIND       PRES   REMARKS
TERRE HAUTE    MOSUNNY   76  61  59 CALM      30.03R
EVANSVILLE     PTSUNNY   79  66  64 NE8       30.01S HX  81
INDIANAPOLIS   MOSUNNY   76  57  51 VRB3      30.01S
LAFAYETTE      SUNNY     73  61  65 W3        30.02S
MADISON        SUNNY     76  61  59 SW3       29.99S
MILWAUKEE      MOSUNNY   78  59  51 VRB6      29.99R
$$




USA.gov is the U.S. government's official web portal to all federal, state and local government web resources and services.